This is the latest recevied weather packets stored in our database for station/object KC5DAQ-22. If no packets are shown the sender has not sent any weather packets the latest 10 day(s).
| Time | Temp. | Humidity | Pressure | Rain* | Wind** | Luminosity | Snow |
|---|---|---|---|---|---|---|---|
| 1777325960 | 31.67° C | 70% | 1008.2 hPa | 0 mm | - | 281 W/m² | - |
| 1777325901 | 31.67° C | 70% | 1008.2 hPa | 0 mm | - | 276 W/m² | - |
| 1777325841 | 31.11° C | 69% | 1008.2 hPa | 0 mm | - | 283 W/m² | - |
| 1777325781 | 31.11° C | 69% | 1008.2 hPa | 0 mm | - | 273 W/m² | - |
| 1777325720 | 31.11° C | 69% | 1008.2 hPa | 0 mm | - | 271 W/m² | - |
| 1777325659 | 31.67° C | 69% | 1008.2 hPa | 0 mm | - | 278 W/m² | - |
| 1777325597 | 31.67° C | 69% | 1008.3 hPa | 0 mm | - | 295 W/m² | - |
| 1777325535 | 31.67° C | 69% | 1008.2 hPa | 0 mm | - | 304 W/m² | - |
| 1777325475 | 31.67° C | 69% | 1008.2 hPa | 0 mm | - | 301 W/m² | - |
| 1777325412 | 31.67° C | 69% | 1008.2 hPa | 0 mm | - | 320 W/m² | - |
| 1777325351 | 31.67° C | 69% | 1008.3 hPa | 0 mm | - | 336 W/m² | - |
| 1777325290 | 31.67° C | 70% | 1008.1 hPa | 0 mm | - | 353 W/m² | - |
| 1777325224 | 31.67° C | 70% | 1008.3 hPa | 0 mm | - | 332 W/m² | - |
| 1777325163 | 31.67° C | 70% | 1008.2 hPa | 0 mm | - | 346 W/m² | - |
| 1777325103 | 31.67° C | 69% | 1008.2 hPa | 0 mm | - | 324 W/m² | - |
| 1777325044 | 31.67° C | 70% | 1008.1 hPa | 0 mm | - | 329 W/m² | - |
| 1777324984 | 31.67° C | 69% | 1008.1 hPa | 0 mm | - | 329 W/m² | - |
| 1777324923 | 31.67° C | 69% | 1008.1 hPa | 0 mm | - | 329 W/m² | - |
| 1777324863 | 31.67° C | 69% | 1008.2 hPa | 0 mm | - | 329 W/m² | - |
| 1777324804 | 31.67° C | 69% | 1008.2 hPa | 0 mm | - | 329 W/m² | - |
| 1777324742 | 31.67° C | 69% | 1008.2 hPa | 0 mm | - | 334 W/m² | - |
| 1777324682 | 31.67° C | 69% | 1008.2 hPa | 0 mm | - | 324 W/m² | - |
| 1777324623 | 31.67° C | 70% | 1008.2 hPa | 0 mm | - | 324 W/m² | - |
| 1777324564 | 31.67° C | 69% | 1008.2 hPa | 0 mm | - | 482 W/m² | - |
| 1777324502 | 31.67° C | 69% | 1008.1 hPa | 0 mm | - | 350 W/m² | - |
* Rain latest hour (hover to see other rain measurements)
** Current wind speed in m/s (hover to see current wind gust speed)